TimeCDT,TemperatureF,Dew PointF,Humidity,Sea Level PressureIn,VisibilityMPH,Wind Direction,Wind SpeedMPH,Gust SpeedMPH,PrecipitationIn,Events,Conditions,WindDirDegrees,DateUTC
12:53 AM,51.1,30.0,44,30.09,10.0,SSE,10.4,-,N/A,,Clear,160,2012-10-11 05:53:00
1:53 AM,53.1,30.9,43,30.07,10.0,SSE,13.8,-,N/A,,Overcast,160,2012-10-11 06:53:00
2:53 AM,54.0,32.0,43,30.06,10.0,South,9.2,-,N/A,,Clear,170,2012-10-11 07:53:00
3:53 AM,53.1,33.1,47,30.04,10.0,South,12.7,-,N/A,,Clear,170,2012-10-11 08:53:00
4:53 AM,50.0,33.1,52,30.03,10.0,South,12.7,-,N/A,,Clear,170,2012-10-11 09:53:00
5:53 AM,50.0,34.0,54,30.03,10.0,South,5.8,-,N/A,,Clear,170,2012-10-11 10:53:00
6:53 AM,48.0,35.1,61,30.04,10.0,South,4.6,-,N/A,,Clear,170,2012-10-11 11:53:00
7:53 AM,52.0,37.0,57,30.03,10.0,South,8.1,-,N/A,,Clear,170,2012-10-11 12:53:00
8:53 AM,55.0,37.9,53,30.04,10.0,South,10.4,-,N/A,,Clear,170,2012-10-11 13:53:00
9:53 AM,62.1,42.1,48,30.03,10.0,South,10.4,-,N/A,,Clear,170,2012-10-11 14:53:00
10:53 AM,66.9,46.9,49,30.03,10.0,South,10.4,-,N/A,,Clear,180,2012-10-11 15:53:00
11:53 AM,70.0,48.0,46,30.02,10.0,South,11.5,18.4,N/A,,Clear,190,2012-10-11 16:53:00
12:53 PM,73.9,50.0,43,30.00,10.0,Variable,4.6,-,N/A,,Clear,0,2012-10-11 17:53:00
1:53 PM,75.0,48.9,40,29.98,10.0,Calm,Calm,-,N/A,,Clear,0,2012-10-11 18:53:00
2:53 PM,78.8,51.8,39,29.98,10.0,Variable,3.5,-,N/A,,Clear,0,2012-10-11 19:53:00
3:53 PM,79.0,51.1,38,29.96,10.0,ENE,4.6,-,N/A,,Clear,70,2012-10-11 20:53:00
4:53 PM,78.8,51.8,39,29.99,10.0,North,9.2,-,N/A,,Clear,350,2012-10-11 21:53:00
5:53 PM,75.9,50.0,40,29.98,10.0,NNE,12.7,-,N/A,,Clear,20,2012-10-11 22:53:00
6:53 PM,73.0,48.9,42,30.02,10.0,NNE,11.5,-,N/A,,Clear,20,2012-10-11 23:53:00
7:53 PM,71.1,48.0,44,30.06,10.0,NNE,11.5,-,N/A,,Mostly Cloudy,30,2012-10-12 00:53:00
8:53 PM,64.0,37.9,38,30.12,10.0,NNE,18.4,26.5,N/A,,Mostly Cloudy,30,2012-10-12 01:53:00
9:53 PM,62.1,37.9,41,30.14,10.0,NNE,17.3,21.9,N/A,,Mostly Cloudy,20,2012-10-12 02:53:00
10:53 PM,59.0,34.0,39,30.17,10.0,NNE,16.1,24.2,N/A,,Overcast,30,2012-10-12 03:53:00
11:53 PM,57.0,34.0,42,30.18,10.0,NNE,17.3,25.3,N/A,,Overcast,30,2012-10-12 04:53:00